Hourly Data Report for August 29, 2017

TORONTO CITY
ONTARIO

43°40'00.000" N
79°24'00.000" W
112.50 m
6158355
71508
XTO

Download Data

Hourly Data (August 2017)
Hourly Data Report for August 29, 2017
TIME
LST
Temp Definition
°C
Dew Point Definition
°C
Rel Hum Definition
%
Precip. Amount Definition
mm

Wind Dir Definition
10's deg

Wind Spd Definition
km/h
Visibility Definition
km
Stn Press Definition
kPa
Hmdx Definition


Wind Chill Definition


Weather Definition


00:00 19.7 12.1 62 0.0 LegendMM LegendMM   100.75     LegendNANA
01:00 19.3 11.8 62 0.0 LegendMM LegendMM   100.73     LegendNANA
02:00 19.0 11.8 63 0.0 LegendMM LegendMM   100.73     LegendNANA
03:00 19.0 11.6 63 0.0 LegendMM LegendMM   100.72     LegendNANA
04:00 18.4 12.1 67 0.0 LegendMM LegendMM   100.72     LegendNANA
05:00 18.1 12.4 69 0.0 LegendMM LegendMM   100.72     LegendNANA
06:00 18.1 12.4 69 0.0 LegendMM LegendMM   100.75     LegendNANA
07:00 18.1 12.7 71 0.0 LegendMM LegendMM   100.77     LegendNANA
08:00 19.2 12.6 66 0.0 LegendMM LegendMM   100.78     LegendNANA
09:00 19.1 11.9 63 0.0 LegendMM LegendMM   100.76     LegendNANA
10:00 20.1 11.8 59 0.0 LegendMM LegendMM   100.74     LegendNANA
11:00 20.3 10.9 55 0.0 LegendMM LegendMM   100.73     LegendNANA
12:00 20.6 10.3 51 0.0 LegendMM LegendMM   100.69     LegendNANA
13:00 19.8 9.5 51 0.0 LegendMM LegendMM   100.64     LegendNANA
14:00 20.7 10.3 51 0.0 LegendMM LegendMM   100.59     LegendNANA
15:00 21.0 9.9 49 0.0 LegendMM LegendMM   100.57     LegendNANA
16:00 20.4 10.3 52 0.0 LegendMM LegendMM   100.56     LegendNANA
17:00 20.2 11.8 58 0.0 LegendMM LegendMM   100.53     LegendNANA
18:00 20.1 12.0 59 0.0 LegendMM LegendMM   100.48     LegendNANA
19:00 19.3 13.6 70 0.0 LegendMM LegendMM   100.44     LegendNANA
20:00 19.0 13.4 70 0.0 LegendMM LegendMM   100.44     LegendNANA
21:00 18.6 12.7 69 0.0 LegendMM LegendMM   100.42     LegendNANA
22:00 18.3 12.8 70 0.0 LegendMM LegendMM   100.36     LegendNANA
23:00 17.9 12.3 70 0.0 LegendMM LegendMM   100.31     LegendNANA

Notes on Data Quality.

Legend

  • E = Estimated
  • M = Missing
  • NA = Not Available*
  • [empty] = Indicates an unobserved value
Date modified: